Погода в Малпилсе

Латвия     57°00′25″N   24°57′07″E
темп.,
°C
ветер,
м/с
пор.,
м/с
влажн.,
%
обл.,
%
осадки,
мм/ч
давл.,
гПа
погр.,
м
5 марта, пт
пт523:00−2зсз39761 0.0 1011633
02:00−2сз596937 0.1 10111202
05:00−3ссз597696 0.1 10121035
08:00−4ссз495265 0.1 1014961
11:00−1сз47360 0.0 10151552
14:000зсз46419 0.0 10161801
17:00−1зсз3557100 0.1 10161184
20:00−3ссв3782100 0.6 1018741
6 марта, сб
сб623:00−4с376661 0.0 1020506
02:00−5сз246530 0.0 1022174
05:00−5зсз24740 0.0 1023141
08:00−5зюз24790 0.0 1023192
11:00−1зюз48507 0.0 10221193
14:00+2зюз6114944 0.0 10181534
17:00+1зюз61350100 0.0 10151479
20:000зюз71656100 0.0 10111395
7 марта, вс
вс723:000зюз61487100 0.3 10061147
02:00−1сз81294100 3.6 1004950
05:00−3сз61356100 0.9 10051846
08:00−4зсз395968 0.9 10061233
11:00−1зсз8135297 0.6 10052083
14:00−1зсз8155298 1.1 10032341
17:00−2зсз91661100 0.4 10012180
20:00−5сз71574100 0.6 10041441
8 марта, пн
пн823:00−5сз51076100 0.1 10071053
02:00−6ссз398063 0.1 1008599
05:00−7сз139072 0.0 100990
08:00−6сз378470 0.0 1012604
11:00−6с4663100 0.1 10141032
14:00−5с4762100 0.1 10161293
17:00−6с4761100 0.0 10181222
20:00−8с396864 0.1 1021687
9 марта, вт
вт923:00−9с28750 0.0 1023407
02:00−10ссз12800 0.0 102446
05:00−10зсз11780 0.0 102521
08:00−8з12711 0.0 102693
11:00−3з24600 0.0 1026669
14:00−1з35460 0.0 10261054
17:00−2зюз36480 0.0 1026628
20:00−5юз39600 0.0 1026278